CW9414 Weather Reports


Display with metric or nautical units.
time (UTC)temp
F
wind
direction
speed
MPH
gust
MPH
rain 1hr
in
rain 24hr
in
rain mn
in
humidity
%
barometer
mb
20260506000408 81 148 8.0 8.0 0.00 0.00 0.00 71 1002.9
20260505235408 82 192 2.0 8.0 0.00 0.00 0.00 71 1002.6
20260505234408 82 197 3.0 5.0 0.00 0.00 0.00 71 1002.6
20260505233411 82 148 2.0 6.0 0.00 0.00 0.00 71 1002.6
20260505232408 82 138 7.0 10.0 0.00 0.00 0.00 70 1002.7
20260505231408 82 153 3.0 6.0 0.00 0.00 0.00 70 1002.7
20260505230408 83 142 1.0 6.0 0.00 0.00 0.00 71 1002.7
20260505225408 83 126 3.0 7.0 0.00 0.00 0.00 71 1002.7
20260505224408 83 153 0.0 7.0 0.00 0.00 0.00 70 1002.8
20260505223408 83 203 2.0 8.0 0.00 0.00 0.00 69 1002.8
20260505222411 84 174 3.0 7.0 0.00 0.00 0.00 69 1002.9
20260505221411 84 163 5.0 10.0 0.00 0.00 0.00 68 1002.9
20260505220411 84 173 2.0 8.0 0.00 0.00 0.00 67 1002.9
20260505215408 84 145 1.0 8.0 0.00 0.00 0.00 67 1003.1
20260505214409 85 167 2.0 5.0 0.00 0.00 0.00 67 1003.3
20260505213411 85 203 3.0 10.0 0.00 0.00 0.00 67 1003.3
20260505212408 84 185 3.0 9.0 0.00 0.00 0.00 67 1003.5
20260505211407 84 209 3.0 8.0 0.00 0.00 0.00 68 1003.6
20260505210408 84 141 4.0 11.0 0.00 0.00 0.00 68 1003.6
20260505205407 84 153 3.0 10.0 0.00 0.00 0.00 68 1004.0
20260505204407 84 205 2.0 9.0 0.00 0.00 0.00 68 1004.1
20260505203408 84 185 5.0 12.0 0.00 0.00 0.00 68 1004.1
20260505202407 84 174 2.0 10.0 0.00 0.00 0.00 68 1004.3
20260505201408 84 170 4.0 11.0 0.00 0.00 0.00 68 1004.5
20260505200407 84 182 2.0 7.0 0.00 0.00 0.00 69 1004.5
20260505195407 84 127 1.0 7.0 0.00 0.00 0.00 69 1004.6
20260505194407 83 170 1.0 5.0 0.00 0.00 0.00 71 1004.7
20260505193411 83 169 0.0 5.0 0.00 0.00 0.00 72 1004.7
20260505192407 82 144 2.0 6.0 0.00 0.00 0.00 72 1005.0
20260505191407 82 157 2.0 10.0 0.00 0.00 0.00 72 1004.9
20260505190407 82 138 1.0 8.0 0.00 0.00 0.00 72 1004.9
20260505185407 83 169 2.0 9.0 0.00 0.00 0.00 72 1005.1
20260505184408 82 159 6.0 12.0 0.00 0.00 0.00 73 1005.1
20260505183408 82 139 4.0 9.0 0.00 0.00 0.00 73 1005.1
20260505182407 81 186 4.0 6.0 0.00 0.00 0.00 74 1005.2
20260505181410 81 229 5.0 6.0 0.00 0.00 0.00 75 1005.4
20260505180408 81 155 0.0 11.0 0.00 0.00 0.00 75 1005.4
20260505175408 81 126 2.0 5.0 0.00 0.00 0.00 76 1005.6
20260505174407 81 139 7.0 7.0 0.00 0.00 0.00 76 1005.6
20260505173407 80 196 2.0 8.0 0.00 0.00 0.00 76 1005.6
20260505172408 80 184 4.0 9.0 0.00 0.00 0.00 76 1005.5
20260505171407 80 136 2.0 9.0 0.00 0.00 0.00 77 1005.6
20260505170408 80 142 4.0 9.0 0.00 0.00 0.00 77 1005.6
20260505165407 79 184 3.0 10.0 0.00 0.00 0.00 79 1005.6
20260505164407 79 142 3.0 8.0 0.00 0.00 0.00 81 1005.6
20260505163407 79 126 0.0 6.0 0.00 0.00 0.00 82 1005.6
20260505162407 78 178 1.0 6.0 0.00 0.00 0.00 82 1005.6
20260505161407 78 148 1.0 8.0 0.00 0.00 0.00 82 1005.6
20260505160407 78 136 1.0 5.0 0.00 0.00 0.00 82 1005.6
20260505152407 77 161 3.0 7.0 0.00 0.00 0.00 84 1005.3
20260505151411 76 195 1.0 5.0 0.00 0.00 0.00 85 1005.3
20260505150407 76 195 4.0 5.0 0.00 0.00 0.00 86 1005.3
20260505140407 75 157 5.0 8.0 0.00 0.00 0.00 91 1005.0
20260505124407 72 157 0.0 1.0 0.00 0.00 0.00 90 1004.9
20260505123407 72 157 0.0 3.0 0.00 0.00 0.00 90 1004.9
20260505122407 71 157 0.0 2.0 0.00 0.00 0.00 89 1004.8
20260505121411 71 157 0.0 2.0 0.00 0.00 0.00 89 1004.5
20260505120407 71 157 0.0 3.0 0.00 0.00 0.00 89 1004.5
20260505115407 71 157 1.0 5.0 0.00 0.00 0.00 89 1004.5
20260505114407 71 157 0.0 1.0 0.00 0.00 0.00 89 1004.6
20260505113407 71 157 0.0 2.0 0.00 0.00 0.00 89 1004.6
20260505112407 71 157 0.0 3.0 0.00 0.00 0.00 88 1004.5
20260505111407 71 157 0.0 5.0 0.00 0.00 0.00 88 1004.3
20260505110407 71 159 0.0 4.0 0.00 0.00 0.00 88 1004.3
20260505101407 71 171 0.0 5.0 0.00 0.00 0.00 87 1004.7
20260505100408 71 171 1.0 3.0 0.00 0.00 0.00 87 1004.7
20260505095407 71 171 0.0 3.0 0.00 0.00 0.00 87 1004.6
20260505094407 71 171 0.0 2.0 0.00 0.00 0.00 86 1004.6
20260505093410 71 171 1.0 5.0 0.00 0.00 0.00 86 1004.6
20260505092407 71 171 0.0 2.0 0.00 0.00 0.00 86 1004.8
20260505091407 71 171 0.0 3.0 0.00 0.00 0.00 86 1005.0
20260505090407 71 171 2.0 3.0 0.00 0.00 0.00 86 1005.0
20260505085407 71 171 0.0 2.0 0.00 0.00 0.00 85 1005.0
20260505084407 71 171 0.0 3.0 0.00 0.00 0.00 85 1005.1
20260505083407 71 171 0.0 3.0 0.00 0.00 0.00 85 1005.1
20260505082410 71 171 0.0 2.0 0.00 0.00 0.00 85 1005.2
20260505081410 71 171 0.0 5.0 0.00 0.00 0.00 84 1005.3
20260505080410 71 172 0.0 3.0 0.00 0.00 0.00 84 1005.3
20260505075407 71 172 0.0 3.0 0.00 0.00 0.00 84 1005.4
20260505074410 71 172 0.0 3.0 0.00 0.00 0.00 84 1005.4
20260505073407 71 171 0.0 4.0 0.00 0.00 0.00 83 1005.4
20260505072407 71 150 0.0 9.0 0.00 0.00 0.00 83 1005.5
20260505071407 71 150 0.0 4.0 0.00 0.00 0.00 82 1005.6
20260505070407 71 151 2.0 3.0 0.00 0.00 0.00 82 1005.6
20260505065407 71 151 2.0 5.0 0.00 0.00 0.00 82 1006.0
20260505064407 71 151 1.0 6.0 0.00 0.00 0.00 82 1006.1
20260505063407 71 151 2.0 4.0 0.00 0.00 0.00 82 1006.1
20260505062407 71 151 1.0 3.0 0.00 0.00 0.00 81 1006.2
20260505061407 71 151 0.0 4.0 0.00 0.00 0.00 81 1006.4
20260505060407 71 151 1.0 6.0 0.00 0.00 0.00 80 1006.4
20260505055406 71 152 1.0 5.0 0.00 0.00 0.00 80 1006.2
20260505054406 71 151 1.0 6.0 0.00 0.00 0.00 79 1006.6
20260505053407 71 151 1.0 4.0 0.00 0.00 0.00 79 1006.6
20260505052406 71 151 0.0 3.0 0.00 0.00 0.00 79 1006.9
20260505051407 71 151 0.0 4.0 0.00 0.00 0.00 79 1006.9
20260505050406 71 151 2.0 5.0 0.00 0.00 0.00 78 1006.9
20260505041410 72 154 2.0 3.0 0.00 0.00 0.00 76 1007.1
20260505040406 72 154 0.0 6.0 0.00 0.00 0.00 75 1007.1
20260505035407 73 154 1.0 5.0 0.00 0.00 0.00 75 1007.1
20260505034406 73 150 1.0 6.0 0.00 0.00 0.00 75 1007.1
20260505033406 73 153 0.0 4.0 0.00 0.00 0.00 74 1007.1
20260505032409 73 153 1.0 5.0 0.00 0.00 0.00 74 1007.2
20260505031407 73 149 1.0 6.0 0.00 0.00 0.00 73 1007.1
20260505030406 73 161 2.0 9.0 0.00 0.00 0.00 72 1007.1
20260505025407 74 138 0.0 7.0 0.00 0.00 0.00 72 1007.2
20260505024407 74 136 3.0 9.0 0.00 0.00 0.00 72 1007.2
20260505023406 74 136 4.0 4.0 0.00 0.00 0.00 71 1007.2
20260505022406 74 134 0.0 7.0 0.00 0.00 0.00 71 1006.9
20260505021406 75 188 1.0 4.0 0.00 0.00 0.00 70 1006.7
20260505020406 75 150 0.0 7.0 0.00 0.00 0.00 69 1006.7
20260505015407 75 148 2.0 7.0 0.00 0.00 0.00 69 1006.8
20260505014409 75 148 3.0 4.0 0.00 0.00 0.00 69 1006.6
20260505013406 75 153 1.0 5.0 0.00 0.00 0.00 68 1006.6
20260505012406 76 148 1.0 9.0 0.00 0.00 0.00 67 1006.6
20260505011406 76 144 2.0 10.0 0.00 0.00 0.00 66 1006.6
20260505010409 77 142 3.0 5.0 0.00 0.00 0.00 65 1006.6
20260505005406 77 143 11.0 11.0 0.00 0.00 0.00 65 1006.6
20260505004406 77 157 2.0 6.0 0.00 0.00 0.00 64 1006.5
20260505003406 78 163 2.0 6.0 0.00 0.00 0.00 64 1006.5
20260505002406 78 148 1.0 7.0 0.00 0.00 0.00 64 1006.3
20260505001407 78 143 4.0 8.0 0.00 0.00 0.00 63 1006.5